Time,TemperatureF,DewpointF,PressureIn,WindDirection,WindDirectionDegrees,WindSpeedMPH,WindSpeedGustMPH,Humidity,HourlyPrecipIn,Conditions,Clouds,dailyrainin,SolarRadiationWatts/m^2,SoftwareType,DateUTC
2013-06-23 06:11:00,78.0,72.0,29.99,North,10,4.0,-999.0,81,-99.99,,,-99.99,0.000000,,2013-06-23 11:11:00,
2013-06-23 06:22:00,78.0,72.0,29.99,North,10,2.0,-999.0,81,-99.99,,,-99.99,0.000000,,2013-06-23 11:22:00,
2013-06-23 06:33:00,78.0,72.0,30.00,NNE,17,2.0,-999.0,81,-99.99,,,-99.99,0.000000,,2013-06-23 11:33:00,
2013-06-23 06:43:00,77.0,71.0,29.99,NNE,12,4.0,-999.0,82,-99.99,,,-99.99,7.000000,,2013-06-23 11:43:00,
2013-06-23 06:53:00,77.0,71.0,30.00,NNE,13,6.0,-999.0,82,-99.99,,,-99.99,12.000000,,2013-06-23 11:53:00,
2013-06-23 07:01:00,77.0,71.0,30.00,NNE,15,7.0,-999.0,83,-99.99,,,-99.99,19.000000,,2013-06-23 12:01:00,
2013-06-23 07:12:00,77.0,71.0,30.01,NNE,17,6.0,-999.0,83,-99.99,,,-99.99,25.000000,,2013-06-23 12:12:00,
2013-06-23 07:22:00,77.0,72.0,30.01,NNE,21,6.0,-999.0,84,-99.99,,,-99.99,28.000000,,2013-06-23 12:22:00,
2013-06-23 07:33:00,77.0,72.0,30.01,NNE,14,6.0,-999.0,84,-99.99,,,-99.99,32.000000,,2013-06-23 12:33:00,
2013-06-23 07:42:00,77.0,72.0,30.02,NNE,12,6.0,-999.0,84,-99.99,,,-99.99,35.000000,,2013-06-23 12:42:00,
2013-06-23 07:53:00,77.0,72.0,30.02,NNE,17,6.0,-999.0,84,-99.99,,,-99.99,39.000000,,2013-06-23 12:53:00,
2013-06-23 08:01:00,77.0,72.0,30.03,NNE,13,5.0,-999.0,85,-99.99,,,-99.99,40.000000,,2013-06-23 13:01:00,
2013-06-23 08:11:00,77.0,72.0,30.03,NNE,21,6.0,-999.0,85,-99.99,,,-99.99,44.000000,,2013-06-23 13:11:00,
2013-06-23 08:23:00,78.0,73.0,30.03,NNE,19,6.0,-999.0,85,-99.99,,,-99.99,54.000000,,2013-06-23 13:23:00,
2013-06-23 08:34:00,78.0,73.0,30.04,NNE,24,7.0,-999.0,85,-99.99,,,-99.99,62.000000,,2013-06-23 13:34:00,
2013-06-23 08:43:00,78.0,73.0,30.04,NNE,17,8.0,-999.0,85,-99.99,,,-99.99,54.000000,,2013-06-23 13:43:00,
2013-06-23 08:53:00,79.0,74.0,30.04,NNE,29,9.0,-999.0,85,-99.99,,,-99.99,54.000000,,2013-06-23 13:53:00,
2013-06-23 09:04:00,79.0,74.0,30.04,NNE,23,8.0,-999.0,85,-99.99,,,-99.99,56.000000,,2013-06-23 14:04:00,
2013-06-23 09:11:00,79.0,74.0,30.05,NNE,28,7.0,-999.0,85,-99.99,,,-99.99,56.000000,,2013-06-23 14:11:00,
2013-06-23 09:22:00,79.0,74.0,30.05,NNE,21,8.0,-999.0,84,-99.99,,,-99.99,58.000000,,2013-06-23 14:22:00,
2013-06-23 09:34:00,80.0,75.0,30.05,NNE,23,6.0,-999.0,84,-99.99,,,-99.99,65.000000,,2013-06-23 14:34:00,
2013-06-23 09:44:00,80.0,75.0,30.05,NNE,25,7.0,-999.0,84,-99.99,,,-99.99,62.000000,,2013-06-23 14:44:00,
2013-06-23 09:52:00,81.0,75.0,30.05,NNE,19,6.0,-999.0,83,-99.99,,,-99.99,63.000000,,2013-06-23 14:52:00,
2013-06-23 10:05:00,81.0,75.0,30.05,NNE,24,7.0,-999.0,82,-99.99,,,-99.99,67.000000,,2013-06-23 15:05:00,
2013-06-23 10:11:00,81.0,75.0,30.05,NNE,24,6.0,-999.0,82,-99.99,,,-99.99,69.000000,,2013-06-23 15:11:00,
2013-06-23 10:22:00,82.0,76.0,30.05,NNE,18,6.0,-999.0,81,-99.99,,,-99.99,76.000000,,2013-06-23 15:22:00,
2013-06-23 10:35:00,82.0,76.0,30.05,NNE,23,7.0,-999.0,81,-99.99,,,-99.99,72.000000,,2013-06-23 15:35:00,
2013-06-23 10:43:00,83.0,76.0,30.05,NNE,21,7.0,-999.0,80,-99.99,,,-99.99,76.000000,,2013-06-23 15:43:00,
2013-06-23 10:52:00,83.0,76.0,30.05,NNE,29,6.0,-999.0,79,-99.99,,,-99.99,84.000000,,2013-06-23 15:52:00,
2013-06-23 11:06:00,83.0,75.0,30.05,North,11,6.0,-999.0,78,-99.99,,,-99.99,93.000000,,2013-06-23 16:06:00,
2013-06-23 11:11:00,84.0,76.0,30.05,NNE,17,6.0,-999.0,77,-99.99,,,-99.99,90.000000,,2013-06-23 16:11:00,
2013-06-23 11:22:00,84.0,76.0,30.05,NNE,25,9.0,-999.0,77,-99.99,,,-99.99,97.000000,,2013-06-23 16:22:00,
2013-06-23 11:36:00,85.0,77.0,30.05,NNE,17,6.0,-999.0,76,-99.99,,,-99.99,98.000000,,2013-06-23 16:36:00,
2013-06-23 11:42:00,84.0,75.0,30.05,NNE,17,8.0,-999.0,75,-99.99,,,-99.99,109.000000,,2013-06-23 16:42:00,
2013-06-23 11:53:00,85.0,76.0,30.04,NNE,27,7.0,-999.0,74,-99.99,,,-99.99,113.000000,,2013-06-23 16:53:00,
2013-06-23 12:03:00,85.0,75.0,30.04,NNE,27,7.0,-999.0,73,-99.99,,,-99.99,155.000000,,2013-06-23 17:03:00,
2013-06-23 12:11:00,86.0,76.0,30.04,NNE,27,9.0,-999.0,72,-99.99,,,-99.99,830.000000,,2013-06-23 17:11:00,
2013-06-23 12:22:00,86.0,75.0,30.03,NNE,27,9.0,-999.0,71,-99.99,,,-99.99,849.000000,,2013-06-23 17:22:00,
2013-06-23 12:33:00,86.0,75.0,30.03,NNE,24,9.0,-999.0,69,-99.99,,,-99.99,860.000000,,2013-06-23 17:33:00,
2013-06-23 12:43:00,87.0,76.0,30.03,NNE,23,8.0,-999.0,69,-99.99,,,-99.99,884.000000,,2013-06-23 17:43:00,
2013-06-23 12:52:00,87.0,75.0,30.02,NNE,17,8.0,-999.0,68,-99.99,,,-99.99,898.000000,,2013-06-23 17:52:00,
2013-06-23 13:01:00,87.0,75.0,30.02,NNE,17,8.0,-999.0,67,-99.99,,,-99.99,911.000000,,2013-06-23 18:01:00,
2013-06-23 13:11:00,88.0,75.0,30.02,NNE,23,8.0,-999.0,66,-99.99,,,-99.99,914.000000,,2013-06-23 18:11:00,
2013-06-23 13:22:00,88.0,75.0,30.01,NNE,17,7.0,-999.0,66,-99.99,,,-99.99,928.000000,,2013-06-23 18:22:00,
2013-06-23 13:34:00,88.0,75.0,30.01,NNE,23,8.0,-999.0,65,-99.99,,,-99.99,933.000000,,2013-06-23 18:34:00,
2013-06-23 13:42:00,89.0,76.0,30.01,NNE,19,8.0,-999.0,65,-99.99,,,-99.99,933.000000,,2013-06-23 18:42:00,
2013-06-23 13:53:00,88.0,75.0,30.01,NNE,25,8.0,-999.0,65,-99.99,,,-99.99,947.000000,,2013-06-23 18:53:00,
2013-06-23 14:01:00,89.0,75.0,30.01,NNE,23,8.0,-999.0,64,-99.99,,,-99.99,949.000000,,2013-06-23 19:01:00,
2013-06-23 14:11:00,89.0,75.0,30.00,NNE,16,7.0,-999.0,64,-99.99,,,-99.99,921.000000,,2013-06-23 19:11:00,
2013-06-23 14:21:00,89.0,75.0,30.00,NNE,17,8.0,-999.0,64,-99.99,,,-99.99,935.000000,,2013-06-23 19:21:00,
2013-06-23 14:32:00,90.0,76.0,29.99,NNE,13,8.0,-999.0,63,-99.99,,,-99.99,960.000000,,2013-06-23 19:32:00,
2013-06-23 14:53:00,90.0,76.0,29.98,NNE,13,7.0,-999.0,63,-99.99,,,-99.99,905.000000,,2013-06-23 19:53:00,
2013-06-23 15:02:00,90.0,75.0,29.98,NNE,21,8.0,-999.0,62,-99.99,,,-99.99,942.000000,,2013-06-23 20:02:00,
2013-06-23 15:12:00,90.0,75.0,29.98,NNE,16,6.0,-999.0,62,-99.99,,,-99.99,858.000000,,2013-06-23 20:12:00,
2013-06-23 15:23:00,90.0,75.0,29.98,NNE,16,7.0,-999.0,61,-99.99,,,-99.99,475.000000,,2013-06-23 20:23:00,
2013-06-23 15:33:00,90.0,74.0,29.98,North,11,6.0,-999.0,60,-99.99,,,-99.99,939.000000,,2013-06-23 20:33:00,
2013-06-23 15:52:00,90.0,75.0,29.97,NNE,18,7.0,-999.0,61,-99.99,,,-99.99,872.000000,,2013-06-23 20:52:00,
2013-06-23 16:01:00,91.0,75.0,29.97,NNE,17,5.0,-999.0,60,-99.99,,,-99.99,949.000000,,2013-06-23 21:01:00,
2013-06-23 16:11:00,91.0,75.0,29.97,North,10,6.0,-999.0,59,-99.99,,,-99.99,868.000000,,2013-06-23 21:11:00,
2013-06-23 16:22:00,91.0,75.0,29.97,NNE,17,6.0,-999.0,59,-99.99,,,-99.99,840.000000,,2013-06-23 21:22:00,
2013-06-23 16:33:00,91.0,75.0,29.97,NNE,18,6.0,-999.0,60,-99.99,,,-99.99,821.000000,,2013-06-23 21:33:00,
2013-06-23 16:44:00,91.0,75.0,29.97,NNE,15,5.0,-999.0,59,-99.99,,,-99.99,779.000000,,2013-06-23 21:44:00,
2013-06-23 16:52:00,91.0,74.0,29.96,North,7,5.0,-999.0,58,-99.99,,,-99.99,749.000000,,2013-06-23 21:52:00,
2013-06-23 17:01:00,91.0,74.0,29.96,NNE,13,6.0,-999.0,58,-99.99,,,-99.99,719.000000,,2013-06-23 22:01:00,
2013-06-23 17:11:00,91.0,75.0,29.96,NNE,15,4.0,-999.0,59,-99.99,,,-99.99,687.000000,,2013-06-23 22:11:00,
2013-06-23 17:22:00,91.0,75.0,29.96,NNE,13,3.0,-999.0,60,-99.99,,,-99.99,649.000000,,2013-06-23 22:22:00,
2013-06-23 17:32:00,91.0,74.0,29.96,NNE,14,2.0,-999.0,58,-99.99,,,-99.99,628.000000,,2013-06-23 22:32:00,
2013-06-23 17:43:00,91.0,74.0,29.96,NNE,17,5.0,-999.0,57,-99.99,,,-99.99,575.000000,,2013-06-23 22:43:00,
2013-06-23 17:53:00,91.0,74.0,29.96,NNE,15,2.0,-999.0,58,-99.99,,,-99.99,578.000000,,2013-06-23 22:53:00,
2013-06-23 18:01:00,91.0,74.0,29.95,North,11,1.0,-999.0,57,-99.99,,,-99.99,221.000000,,2013-06-23 23:01:00,
2013-06-23 18:22:00,91.0,74.0,29.95,NNE,13,4.0,-999.0,57,-99.99,,,-99.99,452.000000,,2013-06-23 23:22:00,
2013-06-23 18:33:00,91.0,74.0,29.94,North,10,3.0,-999.0,58,-99.99,,,-99.99,410.000000,,2013-06-23 23:33:00,
2013-06-23 18:44:00,91.0,74.0,29.94,NNE,15,3.0,-999.0,58,-99.99,,,-99.99,329.000000,,2013-06-23 23:44:00,
2013-06-23 18:52:00,90.0,73.0,29.94,NNE,13,3.0,-999.0,58,-99.99,,,-99.99,308.000000,,2013-06-23 23:52:00,
2013-06-23 19:01:00,90.0,73.0,29.94,NNE,13,3.0,-999.0,58,-99.99,,,-99.99,308.000000,,2013-06-24 00:01:00,
2013-06-23 19:11:00,90.0,73.0,29.94,NNE,13,3.0,-999.0,58,-99.99,,,-99.99,308.000000,,2013-06-24 00:11:00,
2013-06-23 19:22:00,90.0,73.0,29.94,NNE,13,3.0,-999.0,58,-99.99,,,-99.99,308.000000,,2013-06-24 00:22:00,